• In Lithuania
  • List of Countries
  • For 7 days
  • Water Temperature
  • Satellite Maps
  • Weather Map
  • Weather Widgets
  • user-avatar
    Login

    Hourly Weather Kulyub

    Today, 17 January, Wednesday

    Time Temperature Precipitation Wind Pressure Humidity
    00:00 +2°C° 0.1 mm 2 mps 723 mmHg 65%
    01:00 +2°C° 0.1 mm 2 mps 723 mmHg 68%
    02:00 +1°C° 0.1 mm 2 mps 723 mmHg 70%
    03:00 +1°C° 0.3 mm 2 mps 723 mmHg 74%
    04:00 -1°C° 0.3 mm 2 mps 724 mmHg 78%
    05:00 -1°C° 0 mm 2 mps 724 mmHg 87%
    06:00 +1°C° 0.4 mm 1 mps 724 mmHg 87%
    07:00 +1°C° 0.4 mm 1 mps 725 mmHg 87%
    08:00 +1°C° 0.4 mm 1 mps 725 mmHg 87%
    09:00 +2°C° 0.2 mm 1 mps 725 mmHg 83%
    10:00 +1°C° 0.2 mm 0 mps 725 mmHg 80%
    11:00 +2°C° 0 mm 0 mps 724 mmHg 78%
    12:00 +4°C° 0 mm 1 mps 724 mmHg 74%
    13:00 +5°C° 0 mm 1 mps 724 mmHg 70%
    14:00 +5°C° 0 mm 2 mps 724 mmHg 66%
    15:00 +6°C° 0 mm 1 mps 724 mmHg 66%
    16:00 +6°C° 0 mm 1 mps 724 mmHg 65%
    17:00 +6°C° 0 mm 1 mps 725 mmHg 65%
    18:00 +5°C° 0 mm 1 mps 725 mmHg 67%
    19:00 +5°C° 0 mm 1 mps 726 mmHg 68%
    20:00 +4°C° 0 mm 1 mps 726 mmHg 69%
    21:00 +4°C° 0 mm 1 mps 726 mmHg 68%
    22:00 +3°C° 0 mm 2 mps 727 mmHg 66%
    23:00 +3°C° 0 mm 2 mps 727 mmHg 65%

    Tomorrow, 18 January, Thursday

    Time Temperature Precipitation Wind Pressure Humidity
    00:00 +3°C° 0 mm 2 mps 727 mmHg 62%
    01:00 +3°C° 0 mm 2 mps 727 mmHg 60%
    02:00 +3°C° 0 mm 2 mps 727 mmHg 57%
    03:00 +3°C° 0 mm 2 mps 727 mmHg 55%
    04:00 +3°C° 0 mm 2 mps 726 mmHg 53%
    05:00 +3°C° 0 mm 2 mps 726 mmHg 51%
    06:00 +3°C° 0 mm 2 mps 726 mmHg 49%
    07:00 +3°C° 0 mm 2 mps 726 mmHg 47%
    08:00 +3°C° 0 mm 2 mps 727 mmHg 46%
    09:00 +5°C° 0 mm 2 mps 726 mmHg 42%
    10:00 +7°C° 0 mm 2 mps 726 mmHg 37%
    11:00 +10°C° 0 mm 2 mps 725 mmHg 33%
    12:00 +12°C° 0 mm 2 mps 725 mmHg 30%
    13:00 +13°C° 0 mm 2 mps 724 mmHg 27%
    14:00 +14°C° 0 mm 2 mps 723 mmHg 25%
    15:00 +13°C° 0 mm 2 mps 723 mmHg 27%
    16:00 +13°C° 0 mm 2 mps 723 mmHg 29%
    17:00 +12°C° 0 mm 2 mps 723 mmHg 31%
    18:00 +10°C° 0 mm 2 mps 723 mmHg 33%
    19:00 +10°C° 0 mm 2 mps 724 mmHg 34%
    20:00 +9°C° 0 mm 3 mps 724 mmHg 35%
    21:00 +9°C° 0 mm 2 mps 724 mmHg 35%
    22:00 +9°C° 0 mm 2 mps 723 mmHg 35%
    23:00 +9°C° 0 mm 2 mps 723 mmHg 35%

    Day after tomorrow, 19 January, Friday

    Time Temperature Precipitation Wind Pressure Humidity
    00:00 +8°C° 0 mm 2 mps 723 mmHg 36%
    01:00 +8°C° 0 mm 2 mps 723 mmHg 36%
    02:00 +8°C° 0 mm 2 mps 723 mmHg 37%
    03:00 +8°C° 0 mm 2 mps 723 mmHg 38%
    04:00 +8°C° 0 mm 2 mps 723 mmHg 39%
    05:00 +8°C° 0 mm 2 mps 723 mmHg 39%
    06:00 +8°C° 0 mm 2 mps 723 mmHg 40%
    07:00 +8°C° 0 mm 2 mps 724 mmHg 40%
    08:00 +8°C° 0 mm 2 mps 724 mmHg 40%
    09:00 +10°C° 0 mm 2 mps 724 mmHg 37%
    10:00 +13°C° 0 mm 2 mps 725 mmHg 33%
    11:00 +14°C° 0 mm 2 mps 725 mmHg 30%
    12:00 +16°C° 0 mm 2 mps 725 mmHg 27%
    13:00 +17°C° 0 mm 2 mps 725 mmHg 24%
    14:00 +18°C° 0 mm 2 mps 725 mmHg 20%
    15:00 +17°C° 0 mm 2 mps 725 mmHg 22%
    16:00 +17°C° 0 mm 2 mps 725 mmHg 24%
    17:00 +16°C° 0 mm 2 mps 725 mmHg 25%
    18:00 +14°C° 0 mm 3 mps 726 mmHg 28%
    19:00 +13°C° 0 mm 3 mps 727 mmHg 31%
    20:00 +11°C° 0 mm 3 mps 728 mmHg 33%
    21:00 +11°C° 0 mm 3 mps 728 mmHg 33%
    22:00 +10°C° 0 mm 3 mps 728 mmHg 33%
    23:00 +10°C° 0 mm 3 mps 728 mmHg 33%

    20 January, Saturday

    Time Temperature Precipitation Wind Pressure Humidity
    00:00 +9°C° 0 mm 3 mps 727 mmHg 32%
    01:00 +9°C° 0 mm 3 mps 727 mmHg 32%
    02:00 +9°C° 0 mm 3 mps 727 mmHg 31%
    03:00 +8°C° 0 mm 3 mps 727 mmHg 30%
    04:00 +8°C° 0 mm 3 mps 726 mmHg 30%
    05:00 +8°C° 0 mm 3 mps 726 mmHg 29%
    06:00 +8°C° 0 mm 3 mps 726 mmHg 28%
    07:00 +8°C° 0 mm 3 mps 726 mmHg 28%
    08:00 +7°C° 0 mm 3 mps 726 mmHg 27%
    09:00 +10°C° 0 mm 3 mps 725 mmHg 24%
    10:00 +12°C° 0 mm 3 mps 724 mmHg 21%
    11:00 +16°C° 0 mm 3 mps 724 mmHg 17%
    12:00 +17°C° 0 mm 2 mps 723 mmHg 16%
    13:00 +19°C° 0 mm 2 mps 722 mmHg 14%
    14:00 +20°C° 0 mm 2 mps 721 mmHg 12%
    15:00 +19°C° 0 mm 2 mps 720 mmHg 15%
    16:00 +18°C° 0 mm 2 mps 720 mmHg 17%
    17:00 +18°C° 0 mm 1 mps 720 mmHg 19%
    18:00 +16°C° 0 mm 2 mps 720 mmHg 21%
    19:00 +14°C° 0 mm 2 mps 720 mmHg 22%
    20:00 +13°C° 0 mm 2 mps 720 mmHg 24%
    21:00 +13°C° 0 mm 2 mps 720 mmHg 24%
    22:00 +12°C° 0 mm 2 mps 720 mmHg 24%
    23:00 +10°C° 0 mm 2 mps 720 mmHg 24%

    21 January, Sunday

    Time Temperature Precipitation Wind Pressure Humidity
    00:00 +10°C° 0 mm 2 mps 720 mmHg 24%
    01:00 +10°C° 0 mm 2 mps 720 mmHg 23%
    02:00 +9°C° 0 mm 2 mps 719 mmHg 23%
    03:00 +9°C° 0 mm 2 mps 719 mmHg 23%
    04:00 +9°C° 0 mm 2 mps 719 mmHg 22%
    05:00 +8°C° 0 mm 2 mps 719 mmHg 22%
    06:00 +8°C° 0 mm 2 mps 720 mmHg 22%
    07:00 +8°C° 0 mm 2 mps 720 mmHg 22%
    08:00 +8°C° 0 mm 2 mps 720 mmHg 21%
    09:00 +10°C° 0 mm 2 mps 720 mmHg 19%
    10:00 +14°C° 0 mm 1 mps 720 mmHg 16%
    11:00 +16°C° 0 mm 1 mps 720 mmHg 13%
    12:00 +18°C° 0 mm 1 mps 719 mmHg 12%
    13:00 +19°C° 0 mm 1 mps 718 mmHg 11%
    14:00 +20°C° 0 mm 1 mps 718 mmHg 11%
    15:00 +19°C° 0 mm 1 mps 718 mmHg 13%
    16:00 +18°C° 0 mm 1 mps 718 mmHg 15%
    17:00 +16°C° 0 mm 1 mps 718 mmHg 17%
    18:00 +15°C° 0 mm 1 mps 719 mmHg 18%
    19:00 +14°C° 0 mm 1 mps 719 mmHg 20%
    20:00 +12°C° 0 mm 1 mps 720 mmHg 21%
    21:00 +12°C° 0 mm 1 mps 720 mmHg 23%
    22:00 +11°C° 0 mm 1 mps 720 mmHg 25%
    23:00 +11°C° 0 mm 1 mps 721 mmHg 26%

    22 January, Monday

    Time Temperature Precipitation Wind Pressure Humidity
    00:00 +10°C° 0 mm 1 mps 721 mmHg 28%
    01:00 +9°C° 0 mm 1 mps 720 mmHg 30%
    02:00 +9°C° 0 mm 1 mps 720 mmHg 32%
    03:00 +8°C° 0 mm 1 mps 720 mmHg 34%
    04:00 +8°C° 0 mm 1 mps 720 mmHg 37%
    05:00 +7°C° 0 mm 1 mps 720 mmHg 39%
    06:00 +7°C° 0 mm 1 mps 721 mmHg 41%
    07:00 +6°C° 0 mm 1 mps 721 mmHg 43%
    08:00 +6°C° 0 mm 1 mps 721 mmHg 45%
    09:00 +8°C° 0 mm 1 mps 721 mmHg 42%
    10:00 +8°C° 0 mm 2 mps 721 mmHg 39%
    11:00 +10°C° 0 mm 2 mps 720 mmHg 36%
    12:00 +10°C° 0 mm 2 mps 720 mmHg 35%
    13:00 +12°C° 0 mm 2 mps 719 mmHg 34%
    14:00 +13°C° 0 mm 2 mps 719 mmHg 33%
    15:00 +12°C° 0 mm 2 mps 719 mmHg 35%
    16:00 +12°C° 0 mm 2 mps 719 mmHg 37%
    17:00 +10°C° 0 mm 2 mps 720 mmHg 39%
    18:00 +9°C° 0 mm 2 mps 721 mmHg 43%
    19:00 +8°C° 0 mm 2 mps 721 mmHg 47%
    20:00 +7°C° 0 mm 2 mps 722 mmHg 51%
    21:00 +7°C° 0 mm 2 mps 723 mmHg 54%
    22:00 +7°C° 0 mm 1 mps 723 mmHg 56%
    23:00 +7°C° 0 mm 1 mps 723 mmHg 59%
    Show more